This demonstration page uses our WeatherBlox Daily Observations layout. Learn more.

38.89511, -77.03637

Hourly Observations for February 18, 2020

Temp ( °F °C ) Dew Point ( °F °C ) Humidity (%) Winds ( mph kmh ) Pressure ( in mb ) Visibility ( mi km ) Precip ( " mm )
12:52 am 00:52 Cloudy 42 5.6 33 0.6 71 71 S 7 11 30.28 1026 10 16.0934 0 0
1:52 am 01:52 Cloudy 43 6.1 34 1.1 71 71 Calm 30.29 1026 10 16.0934 0 0
2:52 am 02:52 Cloudy 42 5.6 34 1.1 73 73 Calm 30.27 1025 10 16.0934 0 0
3:52 am 03:52 Cloudy 43 6.1 34 1.1 71 71 Calm 30.26 1025 10 16.0934 0 0
4:16 am 04:16 Cloudy 42 5.6 34 1.1 73 73 Calm 30.26 1025 10 16.0934 0 0
4:52 am 04:52 Cloudy 42 5.6 35 1.7 76 76 SE 3 6 30.25 1025 10 16.0934 0 0
5:52 am 05:52 Cloudy 41 5 36 2.2 82 82 Calm 30.26 1025 10 16.0934 0 0
6:52 am 06:52 Cloudy 42 5.6 37 2.8 82 82 ENE 3 6 30.25 1025 10 16.0934 0 0
7:52 am 07:52 Cloudy 43 6.1 37 2.8 80 80 NE 5 7 30.27 1025 8 12.87472 0 0
8:41 am 08:41 Cloudy 44 6.7 37 2.8 76 76 Calm 30.25 1024 8 12.87472 0 0
8:52 am 08:52 Cloudy 45 7.2 37 2.8 74 74 Calm 30.24 1024 8 12.87472 0 0
9:52 am 09:52 Cloudy 46 7.8 40 4.4 79 79 S 5 7 30.22 1023 8 12.87472 0 0
10:06 am 10:06 Cloudy 47 8.3 41 5 80 80 SSW 7 11 30.22 1023 8 12.87472 0 0
10:45 am 10:45 Cloudy 47 8.3 42 5.6 83 83 S 6 9 30.22 1023 9 14.48406 0 0
10:52 am 10:52 Cloudy 47 8.3 42 5.6 83 83 S 6 9 30.22 1023 9 14.48406 0 0
11:18 am 11:18 Mostly Cloudy 49 9.4 42 5.6 77 77 SSE 8 13 30.19 1022 10 16.0934 0 0
11:52 am 11:52 Mostly Cloudy 51 10.6 43 6.1 74 74 SSE 9 15 30.17 1022 10 16.0934 0 0
12:52 pm 12:52 Mostly Cloudy 56 13.3 43 6.1 62 62 S 12 19 30.11 1020 10 16.0934 0 0
1:52 pm 13:52 Mostly Cloudy 57 13.9 41 5 55 55 S 15 24 30.06 1018 10 16.0934 0 0
2:52 pm 14:52 Mostly Cloudy 56 13.3 43 6.1 62 62 S 12 19 30.02 1017 10 16.0934 0 0
3:52 pm 15:52 Cloudy 56 13.3 43 6.1 62 62 S 9 15 30.01 1016 10 16.0934 0 0
4:52 pm 16:52 Cloudy 59 15 44 6.7 58 58 SSW 13 20 30.02 1017 10 16.0934 0 0
5:52 pm 17:52 Cloudy 57 13.9 44 6.7 62 62 SSW 8 13 30.02 1017 10 16.0934 0 0
6:52 pm 18:52 Cloudy 53 11.7 44 6.7 72 72 S 8 13 30.01 1016 10 16.0934 0 0
7:52 pm 19:52 Cloudy with Light Rain 54 12.2 44 6.7 69 69 S 6 9 30.01 1016 10 16.0934 0.001 0.001
8:52 pm 20:52 Cloudy 56 13.3 45 7.2 67 67 Calm 30.03 1017 10 16.0934 0.001 0.001
9:52 pm 21:52 Cloudy 56 13.3 47 8.3 72 72 WNW 9 15 30.06 1018 10 16.0934 0 0
10:52 pm 22:52 Cloudy 55 12.8 46 7.8 72 72 W 5 7 30.06 1018 10 16.0934 0 0
11:52 pm 23:52 Cloudy 56 13.3 44 6.7 65 65 NNW 8 13 30.07 1018 10 16.0934 0 0

Powered by AerisWeather